Location: ????????
(37.6846°N, 24.0673°E)
Time: 14:57:49
(UTC+00:00)

CZ-4B R/B - Pass Details

Date: 14 July 2020
Orbit: 391 x 465 km, 97.6° (Epoch: 04 August)

Event Time Altitude Azimuth Distance (km) Brightness Sun altitude
Rises 02:07:11 0° 144° (SE) 2,477 5.1 -11.7°
Reaches altitude 10° 02:09:23 10° 133° (SE) 1,611 4.3 -11.4°
Maximum altitude 02:12:24 28° 72° (ENE) 897 3.7 -10.9°
Drops below altitude 10° 02:15:26 10° 12° (NNE) 1,625 5.0 -10.5°
Sets 02:17:39 0° 0° (N) 2,503 5.8 -10.1°
